Change the Weather History Date:

Monday, March 4, 2013

  Actual Average Record
Temperature  
Mean Temperature 26 °F -  
Max Temperature 28 °F 27 °F 45 °F (1987)
Min Temperature 23 °F 4 °F -22 °F (1980)
Degree Days  
Heating Degree Days 40    
Moisture  
Dew Point 15 °F    
Average Humidity 67    
Maximum Humidity 80    
Minimum Humidity 47    
Precipitation  
Precipitation 0.00 in - - ()
Sea Level Pressure  
Sea Level Pressure 29.99 in    
Wind  
Wind Speed 13 mph (ENE)    
Max Wind Speed 22 mph    
Max Gust Speed 30 mph    
Visibility 7 miles    
Events Snow    
Averages and records for this station are not official NWS values.
T = Trace of Precipitation, MM = Missing Value Source: NWS Daily Summary

Daily Weather History Graph

Daily Weather History Graph

Search for Another Location

Airport or City:

Trip Planner

Search our weather history database for the weather conditions in past years. The results will help you decide how hot, cold, wet, or windy it might be!

Date:

Astronomy

Mar. 04, 2013 Rise Set
Actual Time 6:58 AM CST 6:11 PM CST
Civil Twilight 6:26 AM CST 6:43 PM CST
Nautical Twilight 5:50 AM CST 7:19 PM CST
Astronomical Twilight 5:13 AM CST 7:56 PM CST
Moon 1:30 AM CST (3/4) 10:32 AM CST (3/4)
Length of Visible Light 12h 16m
Length of Day
11h 13m
Waning Gibbous, 52% of the Moon is Illuminated
Mar 4
Waning Gibbous
Mar 4
Last Quarter
Mar 11
New
Mar 19
First Quarter
Mar 27
Full

Hourly Weather History & Observations

Time (CST) Temp. Windchill Dew Point Humidity Pressure Visibility Wind Dir Wind Speed Gust Speed Precip Events Conditions
12:14 AM 28.4 °F 20.4 °F 10.4 °F 47% 29.95 in 10.0 mi East 8.1 mph - N/A   Scattered Clouds
12:35 AM 28.4 °F 19.7 °F 10.4 °F 47% 29.95 in 10.0 mi East 9.2 mph - N/A   Clear
12:54 AM 28.4 °F 19.1 °F 10.4 °F 47% 29.95 in 10.0 mi East 10.4 mph - N/A   Scattered Clouds
1:14 AM 28.4 °F 19.1 °F 10.4 °F 47% 29.95 in 10.0 mi East 10.4 mph - N/A   Mostly Cloudy
1:54 AM 28.4 °F 18.5 °F 10.4 °F 47% 29.95 in 10.0 mi East 11.5 mph - N/A   Mostly Cloudy
2:14 AM 26.6 °F 16.8 °F 10.4 °F 51% 29.95 in 10.0 mi East 10.4 mph - N/A   Mostly Cloudy
2:34 AM 26.6 °F 17.5 °F 10.4 °F 51% 29.94 in 10.0 mi East 9.2 mph - N/A   Mostly Cloudy
2:54 AM 26.6 °F 16.8 °F 10.4 °F 51% 29.94 in 10.0 mi East 10.4 mph - N/A   Mostly Cloudy
3:14 AM 26.6 °F 16.8 °F 10.4 °F 51% 29.94 in 10.0 mi East 10.4 mph - N/A   Overcast
3:34 AM 26.6 °F 17.5 °F 10.4 °F 51% 29.94 in 10.0 mi East 9.2 mph - N/A   Overcast
3:54 AM 26.6 °F 17.5 °F 12.2 °F 55% 29.94 in 10.0 mi East 9.2 mph - N/A   Overcast
4:14 AM 26.6 °F 16.8 °F 12.2 °F 55% 29.94 in 10.0 mi East 10.4 mph - N/A   Overcast
4:34 AM 26.6 °F 15.7 °F 12.2 °F 55% 29.94 in 10.0 mi East 12.7 mph - N/A   Scattered Clouds
4:54 AM 26.6 °F 16.2 °F 12.2 °F 55% 29.95 in 10.0 mi East 11.5 mph - N/A   Clear
5:14 AM 26.6 °F 16.2 °F 12.2 °F 55% 29.95 in 10.0 mi East 11.5 mph - N/A   Mostly Cloudy
5:34 AM 26.6 °F 16.2 °F 10.4 °F 51% 29.96 in 10.0 mi East 11.5 mph - N/A   Overcast
5:54 AM 26.6 °F 16.8 °F 12.2 °F 55% 29.96 in 10.0 mi East 10.4 mph - N/A   Overcast
6:14 AM 24.8 °F 14.6 °F 12.2 °F 59% 29.96 in 10.0 mi East 10.4 mph - N/A   Mostly Cloudy
6:34 AM 24.8 °F 14.6 °F 12.2 °F 59% 29.97 in 10.0 mi East 10.4 mph - N/A   Mostly Cloudy
6:54 AM 24.8 °F 14.0 °F 12.2 °F 59% 29.97 in 10.0 mi East 11.5 mph - N/A   Overcast
7:14 AM 24.8 °F 13.4 °F 12.2 °F 59% 29.98 in 10.0 mi East 12.7 mph - N/A   Overcast
7:34 AM 24.8 °F 13.4 °F 12.2 °F 59% 29.98 in 10.0 mi East 12.7 mph - N/A   Mostly Cloudy
7:54 AM 24.8 °F 13.4 °F 12.2 °F 59% 29.98 in 10.0 mi East 12.7 mph - N/A   Scattered Clouds
8:14 AM 23.0 °F 11.1 °F 12.2 °F 63% 29.97 in 10.0 mi East 12.7 mph - N/A   Scattered Clouds
8:34 AM 23.0 °F 10.1 °F 12.2 °F 63% 29.97 in 10.0 mi East 15.0 mph - N/A   Scattered Clouds
8:54 AM 23.0 °F 10.6 °F 12.2 °F 63% 29.97 in 10.0 mi East 13.8 mph - N/A   Mostly Cloudy
9:14 AM 23.0 °F 10.1 °F 12.2 °F 63% 29.96 in 10.0 mi East 15.0 mph - N/A   Mostly Cloudy
9:34 AM 23.0 °F 10.6 °F 12.2 °F 63% 29.96 in 10.0 mi East 13.8 mph - N/A   Scattered Clouds
9:54 AM 23.0 °F 11.1 °F 14.0 °F 68% 29.96 in 10.0 mi ENE 12.7 mph - N/A   Clear
10:14 AM 23.0 °F 9.6 °F 12.2 °F 63% 29.96 in 10.0 mi East 16.1 mph - N/A   Clear
10:34 AM 23.0 °F 9.2 °F 14.0 °F 68% 29.96 in 10.0 mi ENE 17.3 mph - N/A   Scattered Clouds
10:54 AM 23.0 °F 8.7 °F 14.0 °F 68% 29.96 in 10.0 mi ENE 18.4 mph - N/A   Mostly Cloudy
11:14 AM 24.8 °F 11.9 °F 14.0 °F 64% 29.95 in 10.0 mi ENE 16.1 mph - N/A   Scattered Clouds
11:34 AM 24.8 °F 11.9 °F 15.8 °F 69% 29.96 in 10.0 mi ENE 16.1 mph - N/A   Clear
11:54 AM 24.8 °F 11.5 °F 15.8 °F 69% 29.96 in 10.0 mi East 17.3 mph - N/A   Scattered Clouds
12:14 PM 24.8 °F 11.9 °F 14.0 °F 64% 29.96 in 10.0 mi ENE 16.1 mph - N/A   Scattered Clouds
12:54 PM 24.8 °F 11.1 °F 17.6 °F 74% 29.96 in 10.0 mi ENE 18.4 mph - N/A   Clear
1:14 PM 26.6 °F 13.1 °F 17.6 °F 69% 29.95 in 10.0 mi ENE 19.6 mph - N/A   Clear
1:35 PM 26.6 °F 15.2 °F 17.6 °F 69% 29.96 in 10.0 mi ENE 13.8 mph - N/A   Clear
1:54 PM 24.8 °F 13.4 °F 17.6 °F 74% 29.96 in 10.0 mi ENE 12.7 mph - N/A   Clear
2:15 PM 26.6 °F 14.3 °F 17.6 °F 69% 29.96 in 5.0 mi ENE 16.1 mph - N/A Snow Light Snow
2:34 PM 26.6 °F 13.4 °F 17.6 °F 69% 29.97 in 5.0 mi ENE 18.4 mph - N/A Snow Light Snow
2:54 PM 26.6 °F 14.3 °F 17.6 °F 69% 29.97 in 4.0 mi East 16.1 mph - N/A Snow Light Snow
3:14 PM 26.6 °F 13.8 °F 19.4 °F 74% 29.98 in 3.0 mi East 17.3 mph - N/A Snow Light Snow
3:34 PM 24.8 °F 11.1 °F 19.4 °F 80% 29.99 in 2.5 mi ENE 18.4 mph - N/A Snow Light Snow
3:54 PM 24.8 °F 10.7 °F 19.4 °F 80% 29.99 in 2.0 mi ENE 19.6 mph - N/A Snow Light Snow
4:15 PM 24.8 °F 11.1 °F 19.4 °F 80% 29.99 in 3.0 mi East 18.4 mph - N/A Snow Light Snow
4:34 PM 24.8 °F 10.7 °F 19.4 °F 80% 30.00 in 1.5 mi ENE 19.6 mph - N/A Snow Light Snow
4:54 PM 24.8 °F 10.0 °F 19.4 °F 80% 30.00 in 1.0 mi ENE 21.9 mph - N/A Snow Light Snow
5:15 PM 24.8 °F 10.0 °F 19.4 °F 80% 30.01 in 0.5 mi ENE 21.9 mph 27.6 mph N/A Snow Light Snow
5:34 PM 24.8 °F 10.0 °F 19.4 °F 80% 30.02 in 0.8 mi ENE 21.9 mph 28.8 mph N/A Snow Light Snow
5:54 PM 24.8 °F 10.7 °F 19.4 °F 80% 30.02 in 1.0 mi ENE 19.6 mph - N/A Snow Light Snow
6:15 PM 24.8 °F 10.0 °F 19.4 °F 80% 30.03 in 1.0 mi ENE 21.9 mph - N/A Snow Light Snow
6:34 PM 24.8 °F 10.3 °F 19.4 °F 80% 30.03 in 1.8 mi ENE 20.7 mph 26.5 mph N/A Snow Light Snow
6:54 PM 24.8 °F 10.0 °F 19.4 °F 80% 30.03 in 1.2 mi ENE 21.9 mph 29.9 mph N/A Snow Light Snow
7:15 PM 24.8 °F 10.3 °F 19.4 °F 80% 30.04 in 1.2 mi ENE 20.7 mph - N/A Snow Light Snow
7:34 PM 24.8 °F 10.7 °F 19.4 °F 80% 30.05 in 2.0 mi ENE 19.6 mph - N/A Snow Light Snow
7:54 PM 24.8 °F 10.7 °F 19.4 °F 80% 30.06 in 3.0 mi ENE 19.6 mph - N/A Snow Light Snow
8:14 PM 24.8 °F 11.1 °F 19.4 °F 80% 30.07 in 3.0 mi ENE 18.4 mph 24.2 mph N/A Snow Light Snow
8:34 PM 24.8 °F 10.7 °F 19.4 °F 80% 30.07 in 1.8 mi ENE 19.6 mph - N/A Snow Light Snow
8:55 PM 24.8 °F 11.5 °F 19.4 °F 80% 30.07 in 1.0 mi ENE 17.3 mph - N/A Snow Snow
9:14 PM 24.8 °F 10.7 °F 19.4 °F 80% 30.08 in 1.0 mi ENE 19.6 mph - N/A Snow Snow
9:34 PM 24.8 °F 10.7 °F 19.4 °F 80% 30.09 in 1.5 mi ENE 19.6 mph - N/A Snow Light Snow
9:55 PM 24.8 °F 10.7 °F 19.4 °F 80% 30.08 in 1.5 mi ENE 19.6 mph - N/A Snow Light Snow
10:14 PM 24.8 °F 11.1 °F 19.4 °F 80% 30.09 in 1.0 mi ENE 18.4 mph - N/A Snow Snow
10:34 PM 24.8 °F 11.5 °F 19.4 °F 80% 30.10 in 1.2 mi ENE 17.3 mph - N/A Snow Light Snow
10:55 PM 24.8 °F 12.4 °F 19.4 °F 80% 30.10 in 2.0 mi ENE 15.0 mph - N/A Snow Light Snow
11:14 PM 24.8 °F 11.9 °F 19.4 °F 80% 30.11 in 2.5 mi ENE 16.1 mph - N/A Snow Light Snow
11:34 PM 24.8 °F 11.9 °F 19.4 °F 80% 30.10 in 1.5 mi ENE 16.1 mph - N/A Snow Light Snow
11:54 PM 24.8 °F 11.5 °F 19.4 °F 80% 30.11 in 2.0 mi ENE 17.3 mph - N/A Snow Light Snow